Overview Statistics Trail Chart Weather Telemetry Raw packets
 

This is the latest recevied weather packets stored in our database for station/object OK2ILA-10. If no packets are shown the sender has not sent any weather packets the latest 10 day(s).

<< 41 42 43 44 45 46 47 >>
Time Temp. Humidity Pressure Rain* Wind** Luminosity Snow
1788349317 25.56° C 39% 1021.6 hPa - - - -
1788348721 26.11° C 40% 1021.6 hPa - - - -
1788348717 26.11° C 40% 1021.6 hPa - - - -
1788348127 25.56° C 40% 1021.7 hPa - - - -
1788348117 25.56° C 40% 1021.7 hPa - - - -
1788347521 25.56° C 40% 1021.8 hPa - - - -
1788347517 25.56° C 40% 1021.8 hPa - - - -
1788346920 25.56° C 41% 1021.9 hPa - - - -
1788346916 25.56° C 41% 1021.9 hPa - - - -
1788346320 24.44° C 42% 1021.9 hPa - - - -
1788346316 24.44° C 42% 1021.9 hPa - - - -
1788345720 24.44° C 41% 1022 hPa - - - -
1788345716 24.44° C 41% 1022 hPa - - - -
1788345116 24.44° C 43% 1022.1 hPa - - - -
1788344520 25° C 42% 1022.1 hPa - - - -
1788344516 25° C 42% 1022.1 hPa - - - -
1788343915 24.44° C 43% 1022.3 hPa - - - -
1788343319 25.56° C 42% 1022.1 hPa - - - -
1788343315 25.56° C 42% 1022.1 hPa - - - -
1788342719 24.44° C 43% 1022.3 hPa - - - -
1788342715 24.44° C 43% 1022.3 hPa - - - -
1788342119 25.56° C 42% 1022.2 hPa - - - -
1788342115 25.56° C 42% 1022.2 hPa - - - -
1788341519 26.11° C 42% 1022.3 hPa - - - -
1788341515 26.11° C 42% 1022.3 hPa - - - -

* Rain since midnight (hover to see other rain measurements)
** Current wind speed in m/s (hover to see current wind gust speed)